Simultaneous Nadir Overpasses (SNOs) Predictions

Prediction of SNOs between GOES-15 and NPP Satellite Orbit:

Table of predicted SNOs for the next 14.0 days since TLE Epoch: 2/20/2021
Index Date Time (GOES-15) GOES-15 Lat,Lon NPP Lat,Lon Distance(km) Time Diff (sec)
1 02/20/2021 22:01:54 0.18,-128.06 -0.19,-129.63 178.79 80
2 02/21/2021 21:45:49 0.18,-128.09 0.84,-125.10 340.67 80
3 02/23/2021 10:07:36 -0.17,-128.09 0.36,-130.36 259.52 80
4 02/24/2021 09:46:12 -0.17,-128.11 -0.67,-125.83 259.03 80
5 02/25/2021 22:08:08 0.16,-128.17 -0.50,-131.14 338.23 80
6 02/26/2021 21:52:04 0.17,-128.19 0.54,-126.61 180.55 80
7 02/28/2021 10:13:51 -0.16,-128.20 0.67,-131.88 419.59 80
8 03/01/2021 09:52:27 -0.16,-128.21 -0.37,-127.35 98.36 80
9 03/03/2021 21:58:17 0.16,-128.28 0.18,-128.12 17.68 80
